アトラス彗星

C/2018 A3 ( ATLAS )

English version
Home page
Updated on August 28, 2020

---------------------------------------------------------------------

・ プロフィール

発見日 2018年1月10日
発見光度 18.7等
発見者 Asteroid Terrestrial-impact Last Alert System (ATLAS) search program

・ 写真集

・ 軌道要素

Epoch 2018 Dec. 28.0 TT = JDT 2458480.5
T 2019 Jan. 12.86364 TT                                 Rudenko
q   3.2767166            (2000.0)            P               Q
z  +0.0020070      Peri.   86.42659     -0.24776665     +0.95551888
 +/-0.0000005      Node   194.27956     +0.40380145     +0.25195780
e   0.9934237      Incl.  139.56201     +0.88065662     +0.15330015
From 1497 observations 2018 Jan. 10-2020 Aug. 15, mean residual 0".7.

・ 星図

・ 光度変化

        m1 = 8.0 + 5 logΔ + 10.0 log r

---------------------------------------------------------------------

軌道要素はM.P.E.C. 2020-Q175に掲載されたものです。
星図はステラナビゲータ Ver.10 (アストロアーツ) で作成したものです。
光度グラフはComet for Windowsで作成したものです。

---------------------------------------------------------------------

Copyright(C) Seiichi Yoshida (comet@aerith.net). All rights reserved.